Location: Kellogg
(38.0159°N, 90.0546°W)
Time: 23:08:18
(UTC+00:00)

Transit 4A - Pass Details

Date: 12 September 2024
Orbit: 864 x 978 km, 66.8° (Epoch: 12 October)

Event Time Altitude Azimuth Distance (km) Brightness Sun altitude
Rises 16:44:17 0° 344° (NNW) 3,589 10.6 52.0°
Reaches altitude 10° 16:47:53 10° 5° (N) 2,666 10.1 52.4°
Maximum altitude 16:51:41 16° 43° (NE) 2,252 10.0 52.7°
Drops below altitude 10° 16:55:30 10° 81° (E) 2,700 10.6 53.1°
Sets 16:59:10 0° 102° (ESE) 3,657 11.3 53.4°
